SR8NGO-1 Weather Reports


time (UTC)temp
C
wind
direction
speed
KPH
gust
KPH
rain 1hr
cm
rain 24hr
cm
rain mn
cm
humidity
%
barometer
mb
20260508075252 11 280 8.0 80.5 13.79 2.16 0.00 92 1005.0
20260508074851 11 275 9.7 80.5 13.79 2.16 0.00 93 1004.9
20260508074452 11 284 6.4 80.5 13.79 2.16 0.00 93 1004.9
20260508074051 12 313 8.0 80.5 13.79 2.21 0.00 93 1004.9
20260508073651 11 251 9.7 80.5 13.79 2.18 0.00 92 1004.9
20260508073251 11 268 9.7 80.5 13.79 2.18 0.00 93 1004.9
20260508072852 11 296 9.7 80.5 13.79 2.16 0.00 93 1004.9
20260508072452 11 296 8.0 80.5 13.79 2.13 0.00 92 1004.8
20260508072052 11 280 9.7 80.5 13.79 2.11 0.00 93 1004.8
20260508071651 11 279 9.7 80.5 13.79 2.11 0.00 92 1004.8
20260508071252 11 269 4.8 80.5 13.79 2.13 0.00 92 1004.8
20260508070852 11 262 8.0 80.5 13.79 2.13 0.00 93 1004.9
20260508070451 11 284 4.8 80.5 13.79 2.16 0.00 93 1004.8
20260508070052 10 275 11.3 80.5 13.79 2.11 0.00 92 1004.8
20260508065651 10 258 9.7 80.5 13.79 2.11 0.00 92 1004.7
20260508065252 11 275 4.8 80.5 13.79 2.11 0.00 93 1004.6
20260508064851 10 263 16.1 80.5 13.69 2.08 0.00 92 1004.4
20260508064452 10 325 9.7 80.5 13.59 2.08 0.00 92 1004.4
20260508064051 10 268 11.3 80.5 13.59 2.08 0.00 92 1004.4
20260508063651 10 262 6.4 80.5 13.41 2.11 0.00 92 1004.4
20260508063251 10 303 9.7 80.5 13.49 2.06 0.00 92 1004.4
20260508062852 10 301 9.7 80.5 13.69 2.11 0.00 93 1004.2
20260508062452 10 324 8.0 80.5 13.69 2.11 0.00 92 1004.1
20260508062051 11 314 12.9 80.5 13.79 2.13 0.00 93 1004.1
20260508061651 11 318 6.4 80.5 13.79 2.16 0.00 93 1004.1
20260508061252 10 329 9.7 80.5 13.79 2.08 0.00 93 1004.2
20260508060851 10 290 8.0 80.5 13.49 2.08 0.00 92 1004.2
20260508060451 10 296 17.7 80.5 13.49 2.08 0.00 92 1004.2
20260508060052 10 303 9.7 80.5 13.49 2.08 0.00 92 1004.2
20260508055651 10 291 12.9 80.5 13.31 2.08 0.00 92 1004.2
20260508055251 10 290 16.1 80.5 13.11 2.06 0.00 92 1004.2
20260508054851 10 246 12.9 80.5 12.90 2.06 0.00 92 1004.2
20260508054451 10 269 11.3 80.5 12.80 2.06 0.00 92 1004.1
20260508054051 10 318 6.4 80.5 12.80 2.08 0.00 92 1004.0
20260508053651 10 279 9.7 80.5 12.80 2.06 0.00 92 1003.9
20260508053251 10 318 8.0 80.5 12.80 2.06 0.00 92 1003.9
20260508052852 10 290 6.4 80.5 12.80 2.06 0.00 92 1003.8
20260508052451 10 184 14.5 80.5 12.80 2.08 0.00 92 1003.8
20260508052051 10 280 8.0 80.5 12.70 2.06 0.00 92 1003.7
20260508051652 10 337 14.5 80.5 12.80 2.06 0.00 92 1003.6
20260508051251 10 325 9.7 80.5 12.70 2.06 0.00 92 1003.5
20260508050852 10 280 14.5 80.5 12.80 2.06 0.00 92 1003.5
20260508050051 10 348 14.5 80.5 12.70 2.06 0.00 92 1003.4
20260508045651 10 325 12.9 80.5 12.80 2.06 0.00 92 1003.5
20260508045252 10 318 16.1 80.5 12.80 2.06 0.00 91 1003.5
20260508044851 10 307 20.9 80.5 12.80 2.06 0.00 92 1003.5
20260508044051 10 320 12.9 80.5 12.60 2.06 0.00 91 1003.5
20260508043651 10 268 12.9 80.5 12.60 2.08 0.00 92 1003.5
20260508043252 10 335 9.7 80.5 12.50 2.08 0.00 92 1003.5
20260508042851 10 280 9.7 80.5 12.50 2.08 0.00 92 1003.5
20260508042451 10 301 11.3 80.5 12.50 2.08 0.00 91 1003.4
20260508042051 10 346 11.3 80.5 12.50 2.08 0.00 92 1003.4
20260508041651 10 331 9.7 80.5 12.40 2.08 0.00 91 1003.4
20260508041251 10 296 14.5 80.5 12.40 2.08 0.00 91 1003.4
20260508040851 10 353 11.3 80.5 12.50 2.08 0.00 91 1003.3
20260508040451 10 275 4.8 80.5 12.50 2.08 0.00 91 1003.3
20260508040051 10 303 6.4 80.5 12.40 2.08 0.00 91 1003.3
20260508035651 10 262 12.9 80.5 12.40 2.08 0.00 91 1003.2
20260508035252 10 296 12.9 80.5 12.40 2.08 0.00 91 1003.2
20260508034851 10 308 12.9 80.5 12.40 2.08 0.00 91 1003.2
20260508034451 10 307 14.5 80.5 12.40 2.08 0.00 91 1003.2
20260508034051 10 346 12.9 80.5 12.40 2.08 0.00 91 1003.2
20260508033651 10 329 17.7 80.5 12.40 2.08 0.00 91 1003.2
20260508033251 10 331 4.8 80.5 12.40 2.11 0.00 91 1003.2
20260508032851 10 342 14.5 80.5 12.40 2.11 0.00 91 1003.2
20260508032451 10 324 14.5 80.5 12.40 2.11 0.00 91 1003.2
20260508032051 10 279 14.5 80.5 12.40 2.11 0.00 91 1003.2
20260508031651 10 279 6.4 80.5 12.40 2.11 0.00 91 1003.1
20260508031251 11 320 4.8 80.5 12.40 2.11 0.00 91 1003.0
20260508030851 11 329 9.7 80.5 12.40 2.13 0.00 91 1003.0
20260508030451 11 341 14.5 80.5 12.40 2.13 0.00 91 1003.0
20260508030051 11 296 9.7 80.5 12.40 2.13 0.00 91 1003.0
20260508025651 11 308 11.3 80.5 12.40 2.13 0.00 91 1003.0
20260508025251 11 331 8.0 80.5 12.40 2.13 0.00 91 1003.0
20260508024851 11 296 9.7 80.5 12.40 2.13 0.00 91 1002.9
20260508024451 11 313 6.4 80.5 12.40 2.13 0.00 91 1002.9
20260508024051 11 284 16.1 80.5 12.40 2.13 0.00 91 1002.9
20260508023651 11 263 14.5 80.5 12.40 2.13 0.00 91 1002.9
20260508023251 11 290 11.3 80.5 12.40 2.13 0.00 91 1002.9
20260508022851 11 303 11.3 80.5 12.40 2.16 0.00 91 1002.8
20260508022451 11 290 4.8 80.5 12.40 2.16 0.00 91 1002.8
20260508022051 11 329 11.3 80.5 12.40 2.16 0.00 91 1002.8
20260508021651 11 342 9.7 80.5 12.40 2.16 0.00 91 1002.8
20260508021251 11 359 16.1 80.5 12.40 2.16 0.00 91 1002.8
20260508020851 11 290 20.9 80.5 12.40 2.16 0.00 91 1002.8
20260508020451 11 290 11.3 80.5 12.40 2.16 0.00 91 1002.8
20260508020051 11 303 17.7 80.5 12.40 2.18 0.00 91 1002.8
20260508015651 11 337 12.9 80.5 12.40 2.18 0.00 91 1002.7
20260508015252 11 346 11.3 80.5 12.40 2.21 0.00 91 1002.7
20260508014851 11 307 12.9 80.5 12.40 2.21 0.00 91 1002.7
20260508014451 11 279 9.7 80.5 12.40 2.21 0.00 91 1002.8
20260508014051 11 286 11.3 80.5 12.40 2.21 0.00 90 1002.7
20260508013651 12 296 14.5 80.5 12.40 2.21 0.00 90 1002.7
20260508013251 12 341 8.0 80.5 12.40 2.24 0.00 91 1002.7
20260508012851 12 273 14.5 80.5 12.40 2.24 0.00 91 1002.7
20260508012451 12 296 9.7 80.5 12.40 2.24 0.00 90 1002.7
20260508012052 12 297 8.0 80.5 12.40 2.24 0.00 91 1002.7
20260508011651 12 329 8.0 80.5 12.40 2.26 0.00 91 1002.7
20260508011251 12 325 9.7 80.5 12.40 2.26 0.00 90 1002.7
20260508010851 12 348 11.3 80.5 12.40 2.26 0.00 90 1002.6
20260508010451 12 320 8.0 80.5 12.50 2.26 0.00 90 1002.6
20260508010051 12 279 8.0 80.5 12.50 2.26 0.00 90 1002.6
20260508005651 12 337 6.4 80.5 12.50 2.26 0.00 90 1002.6
20260508005251 12 318 4.8 80.5 12.50 2.26 0.00 90 1002.6
20260508004851 12 331 4.8 80.5 12.50 2.26 0.00 90 1002.6
20260508004451 12 335 9.7 80.5 12.50 2.26 0.00 90 1002.6
20260508004051 12 320 4.8 80.5 12.50 2.26 0.00 90 1002.6
20260508003651 12 303 8.0 80.5 12.50 2.26 0.00 90 1002.6
20260508003251 12 301 11.3 80.5 12.50 2.26 0.00 90 1002.6
20260508002851 12 307 6.4 80.5 12.50 2.26 0.00 91 1002.7
20260508002451 12 308 9.7 80.5 12.50 2.29 0.00 90 1002.7
20260508002051 12 320 9.7 80.5 12.50 2.29 0.00 90 1002.7
20260508001651 12 301 9.7 80.5 12.50 2.29 0.00 90 1002.7
20260508001251 12 290 9.7 80.5 12.50 2.29 0.00 90 1002.6
20260508000852 12 291 8.0 80.5 12.50 2.29 0.00 90 1002.6
20260508000451 12 325 6.4 80.5 12.50 2.29 0.00 90 1002.6
20260508000051 12 303 6.4 80.5 12.50 2.29 0.00 90 1002.6
20260507235651 12 279 4.8 80.5 12.50 2.31 0.00 90 1002.6
20260507235251 12 308 4.8 80.5 12.50 2.31 0.00 90 1002.6
20260507234851 12 290 9.7 80.5 12.50 2.31 0.00 90 1002.6
20260507234451 12 263 9.7 80.5 12.50 2.31 0.00 90 1002.6
20260507234051 12 290 6.4 80.5 12.50 2.31 0.00 90 1002.6
20260507233651 12 303 11.3 80.5 12.50 2.31 0.00 90 1002.7
20260507233251 12 291 6.4 80.5 12.50 2.34 0.00 90 1002.7
20260507232851 12 329 6.4 80.5 12.50 2.34 0.00 89 1002.7
20260507232451 12 245 20.9 80.5 12.50 2.34 0.00 90 1002.8
20260507232051 12 275 9.7 80.5 12.50 2.34 0.00 89 1002.8
20260507231651 12 286 11.3 80.5 12.50 2.36 0.00 89 1002.8
20260507231251 12 314 3.2 80.5 12.50 2.36 0.00 89 1002.8
20260507230851 12 286 4.8 80.5 12.50 2.36 0.00 89 1002.8
20260507230451 12 256 6.4 80.5 12.50 2.36 0.00 89 1002.8
20260507230051 12 291 6.4 80.5 12.50 2.36 0.00 89 1002.8
20260507225651 12 307 8.0 80.5 12.50 2.36 0.00 89 1002.8
20260507225251 12 297 6.4 80.5 12.50 2.39 0.00 89 1002.8
20260507224851 12 320 4.8 80.5 12.50 2.39 0.00 89 1002.8
20260507224451 12 307 9.7 80.5 12.50 2.39 0.00 89 1002.8
20260507224051 12 303 4.8 80.5 12.50 2.39 0.00 89 1002.8
20260507223651 12 325 4.8 80.5 12.50 2.39 0.00 89 1002.7
20260507223251 12 346 4.8 80.5 12.50 2.39 0.00 89 1002.7
20260507222851 12 346 9.7 80.5 12.50 2.39 0.00 89 1002.7
20260507222452 12 331 6.4 80.5 12.50 2.39 0.00 89 1002.7
20260507222051 12 26 4.8 80.5 12.50 2.39 0.00 89 1002.7
20260507221651 12 342 8.0 80.5 12.50 2.41 0.00 89 1002.6
20260507221251 12 320 8.0 80.5 12.50 2.41 0.00 89 1002.6
20260507220851 12 324 6.4 80.5 12.50 2.41 0.00 88 1002.7
20260507220451 12 320 8.0 80.5 12.50 2.41 0.00 89 1002.7
20260507220051 12 314 6.4 80.5 12.50 2.41 0.00 89 1002.7
20260507215651 13 325 6.4 80.5 12.50 2.41 0.00 89 1002.7
20260507215251 13 279 4.8 80.5 12.50 2.41 0.00 88 1002.7
20260507214851 13 290 9.7 80.5 12.50 2.41 0.00 88 1002.6
20260507214451 13 320 3.2 80.5 12.50 2.41 0.00 88 1002.5
20260507214051 13 286 9.7 80.5 12.50 2.41 0.00 88 1002.5
20260507213651 13 307 11.3 80.5 12.50 2.41 0.00 88 1002.5
20260507213251 13 280 9.7 80.5 12.50 2.41 0.00 88 1002.5
20260507212851 13 307 8.0 80.5 12.50 2.41 0.00 88 1002.5
20260507212451 13 291 9.7 80.5 12.50 2.41 0.00 88 1002.5
20260507212051 13 286 4.8 80.5 12.50 2.41 0.00 88 1002.5
20260507211651 13 275 3.2 80.5 12.50 2.41 0.00 88 1002.4
20260507211251 13 303 3.2 80.5 12.50 2.41 0.00 88 1002.4
20260507210851 13 273 4.8 80.5 12.60 2.41 0.00 88 1002.4
20260507210451 12 279 6.4 80.5 12.60 2.41 0.00 88 1002.4
20260507210051 12 280 1.6 80.5 12.60 2.39 0.00 88 1002.4
20260507205651 12 273 3.2 80.5 12.60 2.39 0.00 88 1002.4
20260507205251 12 296 6.4 80.5 12.60 2.39 0.00 87 1002.4
20260507204851 12 313 3.2 80.5 12.60 2.36 0.00 87 1002.3
20260507204451 12 297 6.4 80.5 12.60 2.36 0.00 87 1002.3
20260507204051 12 296 8.0 80.5 12.60 2.36 0.00 87 1002.3
20260507203651 12 307 4.8 80.5 12.60 2.36 0.00 87 1002.2
20260507203251 12 335 6.4 80.5 12.60 2.36 0.00 87 1002.3
20260507202851 12 268 1.6 80.5 12.60 2.36 0.00 87 1002.3
20260507202451 12 335 6.4 80.5 12.60 2.36 0.00 87 1002.3
20260507202051 12 303 3.2 80.5 12.60 2.36 0.00 87 1002.3
20260507201651 12 301 9.7 80.5 12.60 2.36 0.00 87 1002.3
20260507200451 12 291 9.7 80.5 12.60 2.36 0.00 86 1002.3
20260507200051 12 329 6.4 80.5 12.60 2.36 0.00 86 1002.3
20260507195651 12 286 16.1 80.5 12.60 2.39 0.00 86 1002.3
20260507195251 12 307 6.4 80.5 12.60 2.39 0.00 86 1002.3
20260507194851 12 200 6.4 80.5 12.60 2.41 0.00 86 1002.3
20260507194451 13 346 4.8 80.5 12.60 2.41 0.00 86 1002.3
20260507194051 13 256 6.4 80.5 12.60 2.41 0.00 85 1002.3
20260507193651 12 303 14.5 80.5 12.60 2.41 0.00 85 1002.2
20260507193251 12 234 14.5 80.5 12.60 2.41 0.00 85 1002.2
20260507192851 12 246 9.7 80.5 12.60 2.39 0.00 85 1002.2
20260507192451 12 230 24.1 80.5 12.60 2.39 0.00 85 1002.3
20260507191651 13 218 32.2 80.5 12.60 2.44 0.00 84 1002.2
20260507191251 13 218 20.9 80.5 12.60 2.46 0.00 84 1002.2
20260507190851 13 222 11.3 80.5 12.60 2.49 0.00 84 1002.2
20260507190451 13 201 12.9 80.5 12.60 2.49 0.00 84 1002.1
20260507190051 13 189 6.4 80.5 12.60 2.49 0.00 84 1002.0
20260507185651 13 190 8.0 80.5 12.60 2.49 0.00 83 1002.0
20260507185356 13 213 11.3 80.5 12.60 2.49 0.00 83 1001.9
20260507185251 13 213 11.3 80.5 12.60 2.49 0.00 83 1001.9
20260507184851 13 256 6.4 80.5 12.60 2.46 0.00 83 1001.8
20260507184451 13 324 6.4 80.5 12.60 2.49 0.00 83 1001.7
20260507184051 13 329 6.4 80.5 12.60 2.49 0.00 82 1001.6
20260507183651 13 307 4.8 80.5 12.60 2.49 0.00 82 1001.6
20260507183251 13 331 4.8 80.5 12.60 2.49 0.00 82 1001.5
20260507182851 13 320 8.0 80.5 12.60 2.49 0.00 81 1001.5
20260507182051 13 335 3.2 80.5 12.60 2.49 0.00 80 1001.4
20260507181651 13 296 3.2 80.5 12.60 2.49 0.00 80 1001.4
20260507181251 13 297 0.0 80.5 12.60 2.49 0.00 80 1001.4
20260507180851 13 296 1.6 80.5 12.60 2.49 0.00 79 1001.3
20260507180051 13 297 6.4 80.5 12.60 2.49 0.00 78 1001.3
20260507175651 13 337 6.4 80.5 12.60 2.49 0.00 78 1001.3
20260507175251 13 313 3.2 80.5 12.60 2.49 0.00 78 1001.4
20260507174851 13 190 3.2 80.5 12.60 2.49 0.00 77 1001.4
20260507174451 13 200 3.2 80.5 12.60 2.49 0.00 77 1001.3
20260507173651 13 246 6.4 80.5 12.60 2.49 0.00 76 1001.3
20260507173251 13 218 3.2 80.5 12.60 2.49 0.00 76 1001.3
20260507172851 13 222 8.0 80.5 12.60 2.49 0.00 75 1001.3
20260507172451 13 228 8.0 80.5 12.60 2.49 0.00 74 1001.3
20260507172051 12 200 11.3 80.5 12.60 2.41 0.00 73 1001.2
20260507171651 12 168 14.5 80.5 12.60 2.36 0.00 71 1001.1
20260507171251 13 127 20.9 80.5 12.60 2.51 0.00 70 1001.0
20260507170851 15 172 17.7 80.5 12.60 2.54 0.00 69 1001.1
20260507170451 15 200 32.2 80.5 12.60 2.51 0.00 67 1001.1
20260507170051 15 173 16.1 80.5 12.60 2.57 0.00 65 1000.9
20260507165651 15 213 14.5 80.5 12.60 2.59 0.00 64 1000.7
20260507165251 15 268 6.4 80.5 12.60 2.59 0.00 63 1000.5
20260507164851 15 275 3.2 80.5 12.70 2.62 0.00 62 1000.4
20260507164451 15 301 3.2 80.5 12.70 2.62 0.00 62 1000.3
20260507164051 17 262 6.4 80.5 12.70 2.67 0.00 62 1000.3
20260507163651 17 279 9.7 80.5 12.70 2.74 0.00 61 1000.1
20260507163251 17 256 8.0 80.5 12.80 2.77 0.00 61 1000.1
20260507162851 17 297 12.9 80.5 12.90 2.77 0.00 61 1000.0
20260507162451 17 303 6.4 80.5 13.00 2.79 0.00 61 1000.0
20260507161651 17 256 11.3 80.5 13.21 2.84 0.00 60 1000.0
20260507161251 18 280 9.7 80.5 13.41 2.90 0.00 60 999.9
20260507160851 18 245 12.9 80.5 13.49 2.92 0.00 60 999.9
20260507160451 18 228 17.7 80.5 13.59 2.92 0.00 59 999.9
20260507160051 18 268 11.3 80.5 13.79 2.92 0.00 59 999.9
20260507155650 18 256 6.4 80.5 13.79 2.92 0.00 58 999.9
20260507155251 18 263 8.0 80.5 13.69 2.92 0.00 58 1000.0
20260507154851 18 246 8.0 80.5 13.59 2.92 0.00 58 1000.0
20260507154451 18 245 6.4 80.5 13.59 2.95 0.00 58 1000.0
20260507154051 18 224 8.0 80.5 13.79 2.95 0.00 57 999.9
20260507153651 18 224 8.0 80.5 13.79 2.97 0.00 57 999.9
20260507153250 20 224 4.8 80.5 13.79 2.97 0.00 57 999.9
20260507152850 20 206 9.7 80.5 13.79 3.00 0.00 57 999.9
20260507152451 20 234 6.4 80.5 13.79 3.00 0.00 56 1000.0
20260507152051 20 246 9.7 80.5 13.79 3.00 0.00 56 1000.0
20260507151651 20 228 12.9 80.5 13.79 3.00 0.00 56 1000.0
20260507151251 20 222 11.3 80.5 13.79 3.00 0.00 56 1000.0
20260507150851 20 222 12.9 80.5 13.79 3.00 0.00 55 999.9
20260507150451 20 201 9.7 80.5 13.79 3.02 0.00 55 999.9
20260507150051 20 224 11.3 80.5 13.79 3.05 0.00 55 999.9
20260507145651 20 245 9.7 80.5 13.79 3.07 0.00 55 1000.0
20260507145251 21 207 9.7 80.5 13.79 3.10 0.00 55 999.9
20260507144851 21 239 11.3 80.5 13.79 3.12 0.00 55 999.9
20260507144451 21 211 8.0 80.5 13.79 3.15 0.00 54 999.9
20260507144050 21 213 11.3 80.5 13.79 3.17 0.00 54 1000.0
20260507143650 22 211 16.1 80.5 13.79 3.20 0.00 54 1000.0
20260507143251 21 201 14.5 80.5 13.79 3.15 0.00 54 1000.0
20260507142850 22 211 17.7 80.5 13.79 3.17 0.00 54 1000.1
20260507142451 22 224 19.3 80.5 13.79 3.20 0.00 54 1000.1
20260507142050 22 217 16.1 80.5 13.79 3.20 0.00 55 1000.1
20260507141650 22 207 12.9 80.5 13.79 3.20 0.00 54 1000.0
20260507141250 21 189 16.1 80.5 13.79 3.12 0.00 55 1000.0
20260507140850 22 206 9.7 80.5 13.79 3.15 0.00 55 1000.0
20260507140450 21 211 22.5 80.5 13.79 3.17 0.00 55 1000.0
20260507140050 22 194 20.9 80.5 13.79 3.20 0.00 55 1000.1
20260507135650 22 194 16.1 80.5 13.79 3.25 0.00 56 1000.0
20260507135250 22 172 17.7 80.5 13.79 3.33 0.00 56 1000.1
20260507134850 22 184 14.5 80.5 13.79 3.28 0.00 56 1000.0
20260507134450 22 189 4.8 80.5 13.79 3.17 0.00 57 1000.0
20260507134050 21 190 11.3 80.5 13.79 3.15 0.00 57 1000.0
20260507133651 21 241 11.3 80.5 13.79 3.07 0.00 57 1000.0
20260507133250 20 269 9.7 80.5 13.79 3.02 0.00 57 1000.0
20260507132850 20 234 14.5 80.5 13.79 3.00 0.00 58 1000.0
20260507132450 18 252 24.1 80.5 13.79 2.87 0.00 57 1000.0
20260507132050 17 239 16.1 80.5 13.79 2.77 0.00 56 1000.0
20260507131650 17 239 25.7 80.5 13.79 2.87 0.00 54 1000.0
20260507131250 17 245 29.0 80.5 13.79 2.90 0.00 52 1000.0
20260507130850 20 211 30.6 80.5 13.79 3.02 0.00 49 999.9
20260507130450 20 235 20.9 80.5 13.79 3.07 0.00 48 999.8
20260507130050 21 207 33.8 80.5 13.79 3.15 0.00 47 999.8
20260507125650 22 194 25.7 80.5 13.79 3.25 0.00 46 999.6
20260507125250 22 213 30.6 80.5 13.79 3.30 0.00 46 999.5
20260507124850 22 168 19.3 80.5 13.79 3.35 0.00 46 999.4
20260507124450 22 190 20.9 80.5 13.79 3.43 0.00 46 999.4
20260507124050 22 189 22.5 80.5 13.79 3.40 0.00 46 999.4
20260507123650 23 183 17.7 80.5 13.79 3.48 0.00 46 999.4
20260507122450 25 155 20.9 80.5 13.79 3.71 0.00 47 999.5
20260507122050 27 190 20.9 80.5 13.79 3.71 0.00 48 999.5
20260507121650 27 177 25.7 80.5 13.79 3.81 0.00 48 999.5
20260507121250 27 184 16.1 80.5 13.79 3.71 0.00 47 999.5
20260507120850 26 189 25.7 80.5 13.79 3.58 0.00 47 999.5
20260507120450 25 189 30.6 80.5 13.79 3.51 0.00 47 999.5
20260507120050 23 183 19.3 80.5 13.79 3.48 0.00 47 999.5
20260507115650 23 200 29.0 80.5 13.79 3.40 0.00 48 999.4
20260507115250 23 196 19.3 80.5 13.79 3.43 0.00 49 999.4
20260507114850 25 173 20.9 80.5 13.79 3.48 0.00 49 999.5
20260507114050 27 190 19.3 80.5 13.79 3.76 0.00 49 999.5
20260507113650 27 222 20.9 80.5 13.79 3.56 0.00 49 999.5
20260507113250 23 110 25.7 80.5 13.79 3.58 0.00 50 999.5
20260507112850 27 183 17.7 80.5 13.79 3.53 0.00 50 999.5
20260507112450 23 183 19.3 80.5 13.79 3.58 0.00 51 999.5
20260507112050 26 168 24.1 80.5 13.79 3.58 0.00 51 999.5
20260507111650 27 258 22.5 80.5 13.79 3.61 0.00 51 999.5
20260507111250 27 168 11.3 80.5 13.79 3.76 0.00 51 999.5
20260507110850 26 166 12.9 80.5 13.79 3.63 0.00 50 999.5
20260507110450 25 190 24.1 80.5 13.79 3.45 0.00 51 999.5
20260507110050 27 211 22.5 80.5 13.79 3.56 0.00 51 999.5
20260507105650 27 196 19.3 80.5 13.79 3.61 0.00 51 999.5
20260507105250 27 172 27.4 80.5 13.79 3.71 0.00 51 999.5
20260507104450 23 166 27.4 80.5 13.79 3.58 0.00 52 999.6
20260507104050 25 207 14.5 80.5 13.79 3.56 0.00 52 999.6
20260507103650 26 239 30.6 80.5 13.79 3.53 0.00 53 999.6
20260507103250 27 179 24.1 80.5 13.79 3.76 0.00 53 999.7
20260507102850 25 33 17.7 80.5 13.79 3.68 0.00 53 999.7
20260507102450 25 256 12.9 80.5 13.79 3.66 0.00 54 999.7
20260507102050 27 121 11.3 80.5 13.79 3.78 0.00 54 999.7
20260507101650 26 183 22.5 80.5 13.79 3.61 0.00 54 999.7
20260507101250 27 156 14.5 80.5 13.79 3.63 0.00 54 999.6
20260507100850 26 166 14.5 80.5 13.79 3.63 0.00 54 999.6
20260507100450 25 194 22.5 80.5 13.79 3.61 0.00 55 999.6
20260507100050 23 179 11.3 80.5 13.79 3.66 0.00 54 999.7
20260507095650 22 132 25.7 80.5 13.79 3.51 0.00 54 999.7
20260507095250 22 161 24.1 80.5 13.79 3.58 0.00 54 999.6
20260507094850 23 183 38.6 80.5 13.79 3.43 0.00 54 999.6
20260507094450 25 134 17.7 80.5 13.79 3.48 0.00 54 999.7
20260507094050 23 183 25.7 80.5 13.79 3.43 0.00 54 999.7
20260507093650 23 144 20.9 80.5 13.79 3.35 0.00 54 999.7
20260507093250 23 162 33.8 80.5 13.79 3.48 0.00 54 999.7
20260507092850 22 166 17.7 80.5 13.79 3.33 0.00 54 999.7
20260507092450 22 144 11.3 80.5 13.79 3.28 0.00 53 999.7
20260507092050 22 72 14.5 80.5 13.79 3.33 0.00 53 999.7
20260507091650 22 149 29.0 80.5 13.79 3.33 0.00 53 999.6
20260507091250 22 145 33.8 80.5 13.79 3.33 0.00 53 999.6
20260507090850 22 189 17.7 80.5 13.79 3.40 0.00 53 999.5
20260507090450 22 149 17.7 80.5 13.79 3.38 0.00 52 999.5
20260507090050 22 151 16.1 80.5 13.79 3.40 0.00 53 999.4
20260507085650 22 139 12.9 80.5 13.79 3.43 0.00 53 999.4
20260507085250 22 139 14.5 80.5 13.79 3.40 0.00 53 999.4
20260507084850 22 145 22.5 80.5 13.79 3.38 0.00 53 999.4
20260507084050 23 179 24.1 80.5 13.79 3.40 0.00 53 999.3
20260507083250 21 168 38.6 80.5 13.79 3.28 0.00 54 999.3
20260507082850 22 190 12.9 80.5 13.79 3.35 0.00 55 999.3
20260507082450 22 177 25.7 80.5 13.79 3.35 0.00 55 999.3
20260507082050 22 196 17.7 80.5 13.79 3.35 0.00 56 999.3
20260507081650 22 151 12.9 80.5 13.79 3.38 0.00 56 999.2
20260507081250 22 156 20.9 80.5 13.79 3.33 0.00 56 999.2
20260507080850 22 162 12.9 80.5 13.79 3.25 0.00 56 999.2
20260507080450 21 173 25.7 80.5 13.79 3.20 0.00 55 999.3
20260507080050 21 206 11.3 80.5 13.79 3.17 0.00 55 999.2
20260507075650 20 177 14.5 80.5 13.79 3.15 0.00 55 999.2